"Pseudo-MPEC" for C0R7ZX2

Created 2019 Jun 19 17:07:22 UT using Find_Orb

Click here for an explanation of pseudo-MPECs

 
 Astrometry: 
     C0R7ZX2  C2019 06 08:dpw).8**Wrc(AstrometryK\rgF0FQ4UR?=s/rgMBdWPo4d'-NCF52
     C0R7ZX2  C2019 06 09.20498 13 51 30.03 +45 09 22.4    ~695q 20.4 GVNEOCPG96
     C0R7ZX2  C2019 06 09.21068 13 51 30.65 +45 08 40.8    ~695q 20.4 GVNEOCPG96
     C0R7ZX2  C2019 06 09.21636 13 51 31.23 +45 07 59.3    ~695q 20.5 GVNEOCPG96
     C0R7ZX2  C2019 06 09.22202 13 51 31.81 +45 07 17.7    ~695q 20.4 GVNEOCPG96
     C0R7ZX2  C2019 06 09.33145 13 51 43.19 +44 53 57.9    ~698M 20.9 GVNEOCPI52
     C0R7ZX2  C2019 06 09.33339 13 51 43.46 +44 53 43.8    ~698M 20.8 GVNEOCPI52
     C0R7ZX2  C2019 06 09.33534 13 51 43.67 +44 53 29.6    ~698M 20.6 GVNEOCPI52
     C0R7ZX2  C2019 06 11.35325 13 55 29.57 +40 43 08.2    ~6B8q 20.6 GVNEOCPG96
     C0R7ZX2  C2019 06 11.35435 13 55 29.68 +40 42 59.7    ~6B8q 20.4 GVNEOCPG96
     C0R7ZX2  C2019 06 11.35545 13 55 29.83 +40 42 51.3    ~6B8q 20.4 GVNEOCPG96
     C0R7ZX2  C2019 06 11.35655 13 55 29.92 +40 42 42.5    ~6B8q 20.2 GVNEOCPG96
     C0R7ZX2 KC2019 06 12iSatK@X_u0%m]heJ-5s8oBLZI3bGo'=j-redacted;hclick0eN,H21
     C0R7ZX2 KC2019 06 12O-yfuk7%d=O-DcV1KW4A^Q1ltA1'a/Z'*xrv$hereR`u(G?kXQq5H21
     C0R7ZX2 KC2019 06 12?8tJ#fDxforQF8U`t:9ljqE*l'R2r0=iexplanationE\[?`8_+7H21
     C0R7ZX2  C2019 06 13.17787 13 58 47.79 +36 47 32.6    ~6D4b 21.0 GVNEOCPI52
     C0R7ZX2  C2019 06 13.17908 13 58 47.93 +36 47 22.1    ~6D4b       VNEOCPI52
     C0R7ZX2  C2019 06 13.18030 13 58 48.03 +36 47 13.8    ~6D4b 22.1 GVNEOCPI52
     C0R7ZX2  C2019 06 13.18151 13 58 48.13 +36 47 03.7    ~6D4b 22.9 GVNEOCPI52
     C0R7ZX2  C2019 06 13.20493 13 58 50.33 +36 43 59.6    ~6D5b 20.5 GVNEOCPG96
     C0R7ZX2  C2019 06 13.21060 13 58 50.86 +36 43 14.4    ~6D5b 20.2 GVNEOCPG96
     C0R7ZX2  C2019 06 13.21626 13 58 51.45 +36 42 29.7    ~6D5b 19.7 GVNEOCPG96
     C0R7ZX2  C2019 06 13.22194 13 58 51.92 +36 41 44.5    ~6D5b 21.1 GVNEOCPG96
     C0R7ZX2  C2019 06 14.24793 14 00 39.50 +34 25 47.6    ~6E87 20.1 GVNEOCPI52
     C0R7ZX2  C2019 06 14.24983 14 00 39.67 +34 25 32.9    ~6E87 20.3 GVNEOCPI52
     C0R7ZX2  C2019 06 14.25173 14 00 39.78 +34 25 17.7    ~6E87 20.1 GVNEOCPI52
     C0R7ZX2  C2019 06 15.16948 14 02 15.64 +32 22 06.7    ~6F4M 20.6 GVNEOCPI52
     C0R7ZX2  C2019 06 15.17114 14 02 15.80 +32 21 53.2    ~6F4M 20.8 GVNEOCPI52
     C0R7ZX2  C2019 06 15.17281 14 02 15.99 +32 21 39.6    ~6F4M 20.8 GVNEOCPI52

Station data:
(F52) Pan-STARRS 2, Haleakala  (N20.707384 W156.255910)  US/Hawaii. 1.8-m
   Ritchey-Chrétien + CCD.
(G96) Mt. Lemmon Survey  (N32.442754 W110.788720)  US/Arizona.  Observers T.
   A. Pruyne, B. M. Africano, E. J. Christensen, G. A. Farneth, D. C. Fuls,
   A. R. Gibbs, A. D. Grauer, H. Groeller, J. A. Johnson, R. A. Kowalski, S.
   M. Larson, G. J. Leonard, R. L. Seaman, F. C. Shelly. 1.5-m reflector +
   10K CCD.
(H21) Astronomical Research Observatory, Westfield  (N39.483057 W87.968270)
   US/Illinois. 0.76-m f/3.0 astrograph + CCD.
(I52) Steward Observatory, Mt. Lemmon Station  (N32.442547 W110.788920)
   US/Arizona.  Observers T. A. Pruyne, B. M. Africano, E. J. Christensen, G.
   A. Farneth, D. C. Fuls, A. R. Gibbs, A. D. Grauer, H. Groeller, J. A.
   Johnson, R. A. Kowalski, S. M. Larson, G. J. Leonard, R. L. Seaman, F. C.
   Shelly. 1.0-m reflector + CCD.

Orbital elements:  C0R7ZX2
   Perihelion 2019 Apr 27.088715 +/- 0.64 TT =  2:07:45 (JD 2458600.588715)
Epoch 2019 Jun 15.0 TT = JDT 2458649.5   Earth MOID: 0.2099   Ma: 0.0265
M  21.40740786 +/- 0.8              (J2000 ecliptic)          AutoNEOCP
n   0.43767829 +/- 0.0122           Peri.  108.13786 +/- 0.6
a   1.71803776 +/- 0.0318           Node    89.13468 +/- 0.15
e   0.4095647 +/- 0.00947           Incl.   32.59198 +/- 0.30
P   2.25/822.51d           H 20.9   G  0.15   U  9.8  
q 1.01439010 +/- 0.00263    Q 2.42168542 +/- 0.0635
From 29 observations 2019 June 8-15; mean residual 0".35
Residuals in arcseconds: 
190608 F52  .07+  .21+    190611 G96  .24+  .34-    190613 G96  .32-  .27+    
190609 G96  .28-  .35+    190611 G96  .04-  .66-    190613 G96  .35+  .35+    
190609 G96  .13+  .14+    190612 H21  .10-  .06-    190613 G96  .45-  .11+    
190609 G96  .13+  .08-    190612 H21  .17+  .64+    190614 I52  .93+  .36-    
190609 G96  .15+  .53-    190612 H21  .40-  .28+    190614 I52  .82+  .23+    
190609 I52  .40-  .13-    190613 I52  .23-  .03-    190614 I52  .03-  .33+    
190609 I52  .25+  .02+    190613 I52  .09+  1.0-    190615 I52  .29-  .09-    
190609 I52  .25+  .15+    190613 I52  .09-  .33+    190615 I52  .18-  .14-    
190611 G96  .09-  .38-    190613 I52  .25-  .22-    190615 I52  .29+  .20-    
190611 G96  .15-  .41-    190613 G96  .27-  .64+    

Ephemerides (geocentric):
Date (UTC) HH   RA              Dec         delta   r     elong  mag " sig PA
---- -- -- --  -------------   -----------  ------ ------ -----  --- ---- ---
2019 06 19 17  14 09 50.836   +22 00 44.35  .31857 1.1626 109.7 20.8 2.08   6
2019 06 19 18  14 09 54.929   +21 55 00.86  .31862 1.1628 109.7 20.8 2.12   6
2019 06 19 19  14 09 59.021   +21 49 17.42  .31867 1.1630 109.7 20.8 2.15   6
2019 06 19 20  14 10 03.113   +21 43 34.03  .31873 1.1632 109.8 20.8 2.19   6
2019 06 19 21  14 10 07.203   +21 37 50.68  .31878 1.1634 109.8 20.8 2.22   6
2019 06 19 22  14 10 11.292   +21 32 07.39  .31884 1.1636 109.8 20.8 2.26   5
2019 06 19 23  14 10 15.379   +21 26 24.15  .31889 1.1638 109.9 20.8 2.29   5
2019 06 20 00  14 10 19.466   +21 20 40.96  .31895 1.1640 109.9 20.8 2.33   5
2019 06 20 01  14 10 23.552   +21 14 57.84  .31901 1.1642 109.9 20.8 2.36   5
2019 06 20 02  14 10 27.636   +21 09 14.77  .31907 1.1644 110.0 20.8 2.40   5
2019 06 20 03  14 10 31.720   +21 03 31.76  .31913 1.1646 110.0 20.8 2.44   5
2019 06 20 04  14 10 35.803   +20 57 48.82  .31919 1.1648 110.1 20.8 2.47   5
2019 06 20 05  14 10 39.884   +20 52 05.94  .31925 1.1651 110.1 20.8 2.51   5
2019 06 20 06  14 10 43.965   +20 46 23.13  .31931 1.1653 110.1 20.8 2.55   4
2019 06 20 07  14 10 48.044   +20 40 40.39  .31937 1.1655 110.2 20.8 2.59   4
2019 06 20 08  14 10 52.123   +20 34 57.71  .31944 1.1657 110.2 20.8 2.63   4
2019 06 20 09  14 10 56.200   +20 29 15.11  .31950 1.1659 110.2 20.8 2.67   4
2019 06 20 10  14 11 00.276   +20 23 32.59  .31957 1.1661 110.3 20.8 2.70   4
2019 06 20 11  14 11 04.352   +20 17 50.13  .31963 1.1663 110.3 20.8 2.74   4
2019 06 20 12  14 11 08.427   +20 12 07.76  .31970 1.1665 110.3 20.8 2.78   4
2019 06 20 13  14 11 12.500   +20 06 25.47  .31977 1.1667 110.4 20.8 2.82   4
2019 06 20 14  14 11 16.573   +20 00 43.25  .31984 1.1669 110.4 20.8 2.87   3
2019 06 20 15  14 11 20.644   +19 55 01.12  .31991 1.1671 110.5 20.8 2.91   3
2019 06 20 16  14 11 24.715   +19 49 19.08  .31998 1.1673 110.5 20.8 2.95   3
2019 06 20 17  14 11 28.785   +19 43 37.12  .32005 1.1675 110.5 20.8 2.99   3
2019 06 20 18  14 11 32.854   +19 37 55.25  .32012 1.1677 110.6 20.8 3.03   3
2019 06 20 19  14 11 36.922   +19 32 13.47  .32019 1.1679 110.6 20.8 3.07   3
2019 06 20 20  14 11 40.989   +19 26 31.78  .32027 1.1681 110.6 20.8 3.12   3
2019 06 20 21  14 11 45.056   +19 20 50.19  .32034 1.1683 110.7 20.8 3.16   3
2019 06 20 22  14 11 49.121   +19 15 08.69  .32042 1.1685 110.7 20.8 3.20   3
2019 06 20 23  14 11 53.186   +19 09 27.29  .32049 1.1687 110.7 20.8 3.25   2
2019 06 21 00  14 11 57.249   +19 03 45.99  .32057 1.1689 110.8 20.8 3.29   2
2019 06 21 01  14 12 01.312   +18 58 04.79  .32065 1.1692 110.8 20.8 3.34   2
2019 06 21 02  14 12 05.374   +18 52 23.69  .32073 1.1694 110.8 20.8 3.38   2
2019 06 21 03  14 12 09.435   +18 46 42.70  .32081 1.1696 110.9 20.8 3.43   2
2019 06 21 04  14 12 13.496   +18 41 01.81  .32089 1.1698 110.9 20.8 3.47   2
2019 06 21 05  14 12 17.555   +18 35 21.03  .32097 1.1700 110.9 20.8 3.52   2
2019 06 21 06  14 12 21.614   +18 29 40.37  .32105 1.1702 111.0 20.8 3.56   2
2019 06 21 07  14 12 25.672   +18 23 59.81  .32114 1.1704 111.0 20.8 3.61   2
2019 06 21 08  14 12 29.730   +18 18 19.37  .32122 1.1706 111.0 20.8 3.66   2
2019 06 21 09  14 12 33.786   +18 12 39.04  .32131 1.1708 111.1 20.8 3.70   1
2019 06 21 10  14 12 37.842   +18 06 58.83  .32139 1.1710 111.1 20.8 3.75   1
2019 06 21 11  14 12 41.897   +18 01 18.74  .32148 1.1712 111.1 20.8 3.80   1
2019 06 21 12  14 12 45.951   +17 55 38.77  .32157 1.1714 111.2 20.8 3.85   1
2019 06 21 13  14 12 50.005   +17 49 58.92  .32166 1.1716 111.2 20.8 3.90   1
2019 06 21 14  14 12 54.057   +17 44 19.20  .32175 1.1718 111.2 20.8 3.95   1
2019 06 21 15  14 12 58.109   +17 38 39.60  .32184 1.1720 111.3 20.8 4.00   1
2019 06 21 16  14 13 02.161   +17 33 00.13  .32193 1.1723 111.3 20.8 4.05   1